カタログに戻る

STARLINK-37041

運用中通信SSO
NORAD 68104·PAYLOAD·🇺🇸 United States

打ち上げ Mar 8, 2026 から Vandenberg Space Force Base

Loading…

次のパス (今後24時間)

TLE

最新Source: CelesTrak SupGP

元期: Sep 15, 2026, 02:43 UTC

1 68104C 26044D   26258.11368056 -.00016696  00000+0 -51850-3 0  2587
2 68104  97.2850 217.0869 0001796  90.3786  94.7399 15.33434786    17

AllMySatでSTARLINK-37041をリアルタイム追跡

Download on the App Store